Tracking 28794 objects as of 19-Apr-2024
HD Live streaming from Space Station
objects crossing your sky now

STARLINK-3095

Track STARLINK-3095 now!
10-day predictions
STARLINK-3095 is classified as:


NORAD ID: 49160
Int'l Code: 2021-082AG
Perigee: 577.6 km
Apogee: 580.7 km
Inclination: 70.0 °
Period: 96.1 minutes
Semi major axis: 6950 km
RCS: Unknown
Launch date: September 14, 2021
Source: United States (US)
Launch site: AIR FORCE WESTERN TEST RANGE (AFWTR)
Your satellite tracking list
Your tracking list is empty




NASA's NSSDC Master Catalog

Two Line Element Set (TLE):
1 49160U 21082AG  24110.57999124  .00003497  00000-0  30066-3 0  9998
2 49160  70.0019 231.9285 0002252 261.0308  99.0596 14.98341283143829
Source of the keplerian elements: AFSPC